�N����,����,����,����,����,�C��,���x,�~����,�S�V����,�ő�u�ԕ���,,,,,
,,,,,,,,,����,����,����,�N��,,
yyyy/mm/dd,hh:mm:ss,(16),16����,m/s,��,%,mm,KW/�u,(16),16����,m/s,Time,,
2021/8/1,1:00:00,1,�k�k��,1.9,21.7,99.9,1,0,1,�k�k��,3.8,49,,
2021/8/1,2:00:00,16,�k,1.7,21.6,100,0.5,0,1,�k�k��,3.2,30,,
2021/8/1,3:00:00,13,���k��,1.4,21.6,100,1.5,0,16,�k,2.8,4,,
2021/8/1,4:00:00,14,�k��,1.2,21.7,100,4.5,0,15,�k�k��,2.4,43,,
2021/8/1,5:00:00,15,�k�k��,1.2,21.7,100,4,0,16,�k,3.2,52,,
2021/8/1,6:00:00,15,�k�k��,0.5,21.6,100,8.5,0.01,15,�k�k��,3.4,30,,
2021/8/1,7:00:00,15,�k�k��,1.1,21.8,100,20.5,0.02,14,�k��,2.5,47,,
2021/8/1,8:00:00,15,�k�k��,0.9,22.1,100,13.5,0.04,14,�k��,2.6,6,,
2021/8/1,9:00:00,2,�k��,2.7,22.4,100,13,0.08,2,�k��,5.2,55,,
2021/8/1,10:00:00,2,�k��,4.1,22.3,100,4,0.15,2,�k��,8.3,59,,
2021/8/1,11:00:00,2,�k��,4.6,22,100,9.5,0.12,1,�k�k��,9,21,,
2021/8/1,12:00:00,2,�k��,4.6,22.1,100,2.5,0.11,3,���k��,10.4,35,,
2021/8/1,13:00:00,3,���k��,5.6,22.3,100,0.5,0.14,3,���k��,10.4,2,,
2021/8/1,14:00:00,3,���k��,5.1,22.5,100,2,0.17,3,���k��,10.6,42,,
2021/8/1,15:00:00,3,���k��,5.3,22.4,100,1.5,0.13,3,���k��,9.7,31,,
2021/8/1,16:00:00,3,���k��,6,22.2,100,1,0.12,3,���k��,11,7,,
2021/8/1,17:00:00,3,���k��,5.7,22.1,100,0,0.07,3,���k��,10.2,23,,
2021/8/1,18:00:00,3,���k��,5.7,21.8,100,0.5,0.03,3,���k��,10.1,33,,
2021/8/1,19:00:00,3,���k��,5.2,21.5,100,0,0,2,�k��,11.4,14,,
2021/8/1,20:00:00,3,���k��,5.3,21.3,100,0.5,0,2,�k��,10.1,4,,
2021/8/1,21:00:00,3,���k��,4.8,21.1,100,1.5,0,4,��,9.3,30,,
2021/8/1,22:00:00,3,���k��,4.8,20.9,100,1,0,3,���k��,8.7,30,,
2021/8/1,23:00:00,3,���k��,4.3,20.7,100,1.5,0,2,�k��,8.2,0,,
2021/8/1,0:00:00,2,�k��,3.4,20.7,100,2.5,0,2,�k��,7.7,21,,
2021/8/2,1:00:00,2,�k��,2.9,20.5,100,1.5,0,2,�k��,6.5,43,,
2021/8/2,2:00:00,2,�k��,1.6,20.5,100,1.5,0,3,���k��,4.5,2,,
2021/8/2,3:00:00,2,�k��,1.2,20.6,100,0.5,0,2,�k��,2.8,56,,
2021/8/2,4:00:00,2,�k��,1.4,20.5,100,0,0,2,�k��,3.6,21,,
2021/8/2,5:00:00,3,���k��,1.5,20.6,100,0,0.01,3,���k��,2.6,46,,
2021/8/2,6:00:00,3,���k��,2,20.8,100,0,0.06,3,���k��,3.2,48,,
2021/8/2,7:00:00,3,���k��,3,20.9,100,0,0.13,3,���k��,5.2,56,,
2021/8/2,8:00:00,3,���k��,3.3,21.2,100,0,0.2,3,���k��,5.3,3,,
2021/8/2,9:00:00,3,���k��,3.3,21.8,96.5,0,0.28,4,��,5.2,34,,
2021/8/2,10:00:00,4,��,4,22.1,94.3,0,0.33,3,���k��,5.9,58,,
2021/8/2,11:00:00,4,��,3.8,22.5,92.9,0,0.42,5,���쓌,6.1,16,,
2021/8/2,12:00:00,3,���k��,3.6,23,90.8,0,0.52,4,��,5.7,8,,
2021/8/2,13:00:00,3,���k��,3.6,23.2,92.5,0,0.53,5,���쓌,6.7,33,,
2021/8/2,14:00:00,4,��,3.6,22.8,89.5,0,0.51,4,��,5.7,20,,
2021/8/2,15:00:00,4,��,3.1,21.9,93.9,0,0.38,4,��,4.9,12,,
2021/8/2,16:00:00,3,���k��,2.5,21.4,96.2,0,0.19,4,��,4.9,14,,
2021/8/2,17:00:00,2,�k��,2.4,21.5,96.1,0,0.13,3,���k��,4,37,,
2021/8/2,18:00:00,2,�k��,2.1,20.7,98.5,0,0.05,3,���k��,3.4,48,,
2021/8/2,19:00:00,3,���k��,1.5,20.3,99.8,0,0.01,3,���k��,3.4,22,,
2021/8/2,20:00:00,1,�k�k��,0.7,20.2,100,0,0,3,���k��,2.5,2,,
2021/8/2,21:00:00,16,�k,0.8,20.2,100,0,0,1,�k�k��,1.9,30,,
2021/8/2,22:00:00,1,�k�k��,1.2,20.2,100,0,0,1,�k�k��,1.9,54,,
2021/8/2,23:00:00,3,���k��,1.1,20.3,100,0,0,2,�k��,1.8,15,,
2021/8/2,0:00:00,1,�k�k��,1.1,20.2,100,0,0,1,�k�k��,2.5,28,,
2021/8/3,1:00:00,1,�k�k��,0.6,20.2,100,0,0,1,�k�k��,1.5,22,,
2021/8/3,2:00:00,16,�É�,0,20.3,100,0,0,14,�k��,1.1,44,,
2021/8/3,3:00:00,3,���k��,0.8,20.4,100,0,0,3,���k��,1.4,55,,
2021/8/3,4:00:00,1,�k�k��,0.6,20.2,100,0,0,2,�k��,2.3,24,,
2021/8/3,5:00:00,16,�É�,0,20.5,100,0,0.02,1,�k�k��,1.2,21,,
2021/8/3,6:00:00,16,�k,0.4,21.1,100,0,0.09,2,�k��,1.4,57,,
2021/8/3,7:00:00,3,���k��,0.7,21.6,100,0,0.12,3,���k��,1.6,59,,
2021/8/3,8:00:00,11,���쐼,0.5,22.3,100,0,0.24,5,���쓌,1.5,7,,
2021/8/3,9:00:00,7,��쓌,1.5,23.3,96.9,0,0.36,7,��쓌,2.5,52,,
2021/8/3,10:00:00,5,���쓌,0.6,25.9,86,0,0.64,6,�쓌,2.9,2,,
2021/8/3,11:00:00,6,�쓌,2.6,26.3,78.6,0,0.77,5,���쓌,4.2,57,,
2021/8/3,12:00:00,7,��쓌,2.9,26.1,82.9,0,1,7,��쓌,4.6,58,,
2021/8/3,13:00:00,8,��,3.1,25.6,84.6,0,0.93,8,��,5.1,44,,
2021/8/3,14:00:00,7,��쓌,2.2,24.9,87.1,0,0.8,7,��쓌,5.5,5,,
2021/8/3,15:00:00,5,���쓌,1.8,24.8,85.3,0,0.65,6,�쓌,4,10,,
2021/8/3,16:00:00,5,���쓌,1.2,25.4,89.5,0,0.56,6,�쓌,2.7,38,,
2021/8/3,17:00:00,5,���쓌,1.5,24.1,93.4,0,0.29,5,���쓌,2.2,48,,
2021/8/3,18:00:00,5,���쓌,0.9,23.4,94.5,0,0.19,5,���쓌,2.1,0,,
2021/8/3,19:00:00,3,���k��,2.1,21.4,99.3,0,0.02,3,���k��,2.8,57,,
2021/8/3,20:00:00,3,���k��,1.9,21.4,100,0,0,3,���k��,3.3,45,,
2021/8/3,21:00:00,3,���k��,2.2,21.3,100,0,0,3,���k��,3.3,51,,
2021/8/3,22:00:00,2,�k��,2.1,21.4,100,0,0,3,���k��,3.9,22,,
2021/8/3,23:00:00,2,�k��,2,21.2,100,0,0,1,�k�k��,3.7,46,,
2021/8/3,0:00:00,2,�k��,0.8,21.1,100,0,0,2,�k��,4.1,32,,
2021/8/4,1:00:00,4,��,1.7,20.6,100,0,0,3,���k��,2.7,17,,
2021/8/4,2:00:00,3,���k��,0.9,20.4,100,0,0,4,��,2.8,17,,
2021/8/4,3:00:00,5,���쓌,0.6,20.4,100,0,0,5,���쓌,1.5,40,,
2021/8/4,4:00:00,6,�쓌,0.6,20.4,100,0,0,4,��,1.1,26,,
2021/8/4,5:00:00,5,���쓌,0.4,20.6,100,0,0.02,5,���쓌,0.9,59,,
2021/8/4,6:00:00,10,�쐼,0.4,21.1,100,0,0.05,10,�쐼,1.1,56,,
2021/8/4,7:00:00,12,��,1.2,21.7,100,0,0.17,11,���쐼,2.3,59,,
2021/8/4,8:00:00,8,��,0.9,22.5,100,0,0.24,8,��,2.2,58,,
2021/8/4,9:00:00,8,��,2.1,23,99.7,0,0.3,7,��쓌,3.1,58,,
2021/8/4,10:00:00,7,��쓌,2.1,24.5,91.9,0,0.52,6,�쓌,3.2,36,,
2021/8/4,11:00:00,7,��쓌,2.9,25,87.5,0,0.94,6,�쓌,4.9,58,,
2021/8/4,12:00:00,7,��쓌,2.9,25.4,83.3,0,0.95,6,�쓌,5.1,49,,
2021/8/4,13:00:00,6,�쓌,2,22.9,89.3,0,0.71,7,��쓌,4.5,40,,
2021/8/4,14:00:00,7,��쓌,1.5,27,81.2,0,0.73,8,��,3.6,4,,
2021/8/4,15:00:00,7,��쓌,2,26.1,84.8,0,0.6,8,��,3.2,53,,
2021/8/4,16:00:00,6,�쓌,2.1,23.8,88.7,0,0.53,6,�쓌,3.7,10,,
2021/8/4,17:00:00,4,��,1.6,23.1,94.6,0,0.16,4,��,2.5,59,,
2021/8/4,18:00:00,3,���k��,1.8,22.3,96,0,0.12,3,���k��,3.3,42,,
2021/8/4,19:00:00,4,��,0.9,21.7,97.6,0,0.01,1,�k�k��,6.3,7,,
2021/8/4,20:00:00,4,��,1.3,21.1,98.8,0,0,5,���쓌,2.8,20,,
2021/8/4,21:00:00,3,���k��,2.9,20.5,99,0,0,3,���k��,4.3,30,,
2021/8/4,22:00:00,4,��,1.9,20.2,99,0,0,3,���k��,5.4,1,,
2021/8/4,23:00:00,4,��,1.6,20.2,99.4,0,0,3,���k��,3.1,26,,
2021/8/4,0:00:00,2,�k��,0.9,20,100,0,0,2,�k��,2.2,20,,
2021/8/5,1:00:00,2,�k��,0.7,20,100,0,0,4,��,2,17,,
2021/8/5,2:00:00,1,�k�k��,1.3,19.9,100,0,0,3,���k��,2.5,17,,
2021/8/5,3:00:00,16,�k,0.3,19.7,100,0,0,1,�k�k��,2.1,1,,
2021/8/5,4:00:00,1,�k�k��,0.5,19.6,100,0,0,2,�k��,1.8,41,,
2021/8/5,5:00:00,1,�k�k��,0.9,19.7,100,0,0.01,1,�k�k��,1.5,22,,
2021/8/5,6:00:00,13,���k��,0.5,20.2,100,0,0.05,13,���k��,1.5,52,,
2021/8/5,7:00:00,16,�É�,0,21.1,100,0,0.17,2,�k��,1.5,41,,
2021/8/5,8:00:00,16,�É�,0.2,23.1,100,0,0.36,8,��,1.7,35,,
2021/8/5,9:00:00,6,�쓌,2.5,25,86.4,0,0.7,5,���쓌,3.8,51,,
2021/8/5,10:00:00,6,�쓌,1.3,25.4,82.9,0,0.85,5,���쓌,3.7,19,,
2021/8/5,11:00:00,6,�쓌,2.7,25.7,77.3,0,0.95,,,,,,
2021/8/5,12:00:00,7,��쓌,1.5,27.2,78,0,0.97,,,,,,
2021/8/5,13:00:00,7,��쓌,1.7,27.9,74.8,0,0.94,6,�쓌,3.7,41,,
2021/8/5,14:00:00,7,��쓌,1.6,29.4,68.7,0,0.88,6,�쓌,3.1,45,,
2021/8/5,15:00:00,7,��쓌,1.5,29.1,70.8,0,0.72,7,��쓌,3.3,7,,
2021/8/5,16:00:00,6,�쓌,1.5,28.5,80.1,0,0.54,4,��,3,13,,
2021/8/5,17:00:00,5,���쓌,1.3,27.3,82.6,0,0.35,6,�쓌,2.2,15,,
2021/8/5,18:00:00,10,�쐼,0.8,25.8,87.8,0,0.12,5,���쓌,1.5,0,,
2021/8/5,19:00:00,16,�É�,0.2,24,94,0,0.01,13,���k��,1.7,21,,
2021/8/5,20:00:00,3,���k��,2.5,21.9,97,0,0,3,���k��,6.1,32,,
2021/8/5,21:00:00,3,���k��,2,21,98.9,0,0,3,���k��,3.8,12,,
2021/8/5,22:00:00,16,�k,0.5,20.7,98.9,0,0,2,�k��,2.8,1,,
2021/8/5,23:00:00,12,��,0.3,20.3,99.6,0,0,12,��,1.9,14,,
2021/8/5,0:00:00,13,���k��,0.7,19.8,99.9,0,0,13,���k��,1.7,42,,
2021/8/6,1:00:00,13,���k��,1.6,20.1,100,0,0,13,���k��,2.2,54,,
2021/8/6,2:00:00,14,�k��,1,20.5,100,0,0,13,���k��,2.5,26,,
2021/8/6,3:00:00,12,��,1.4,20.5,100,0,0,13,���k��,2.2,44,,
2021/8/6,4:00:00,13,���k��,0.9,20.3,100,0,0,13,���k��,2.5,13,,
2021/8/6,5:00:00,13,���k��,1.5,20.6,100,0,0.02,14,�k��,2.2,43,,
2021/8/6,6:00:00,13,���k��,0.9,23.1,94.5,0,0.16,13,���k��,2.8,35,,
2021/8/6,7:00:00,16,�É�,0.1,26.1,87.8,0,0.32,12,��,1.8,35,,
2021/8/6,8:00:00,4,��,1.8,27.6,79.4,0,0.53,5,���쓌,2.7,59,,
2021/8/6,9:00:00,5,���쓌,2.5,26.7,82,0,0.71,5,���쓌,4.5,32,,
2021/8/6,10:00:00,5,���쓌,3.1,25.9,82,0,0.84,6,�쓌,4.5,54,,
2021/8/6,11:00:00,4,��,3.1,24.4,86.2,0,0.79,5,���쓌,4.9,23,,
2021/8/6,12:00:00,5,���쓌,3.6,23.6,84.7,0,0.74,3,���k��,5.9,29,,
2021/8/6,13:00:00,5,���쓌,2.6,23.2,88,0,0.64,5,���쓌,4.5,54,,
2021/8/6,14:00:00,5,���쓌,1.6,23.3,90,0,0.49,5,���쓌,4.9,36,,
2021/8/6,15:00:00,3,���k��,2,24.1,87.1,0,0.5,3,���k��,3.5,27,,
2021/8/6,16:00:00,5,���쓌,2.4,23.7,88.8,0,0.51,5,���쓌,3.6,36,,
2021/8/6,17:00:00,4,��,2.5,21.8,96.2,0,0.17,4,��,3.8,44,,
2021/8/6,18:00:00,4,��,2.8,21.5,97.4,0,0.04,4,��,4,58,,
2021/8/6,19:00:00,4,��,2.5,20.9,98.8,0,0.01,4,��,4.6,21,,
2021/8/6,20:00:00,3,���k��,2,20.9,99.5,0,0,3,���k��,3.6,34,,
2021/8/6,21:00:00,2,�k��,2,20.7,100,0,0,2,�k��,3,40,,
2021/8/6,22:00:00,2,�k��,1.4,20.5,100,0,0,1,�k�k��,2.8,34,,
2021/8/6,23:00:00,16,�k,0.9,20.6,100,0,0,2,�k��,2.5,2,,
2021/8/6,0:00:00,16,�É�,0.2,20.7,100,0,0,13,���k��,1.2,25,,
2021/8/7,1:00:00,16,�É�,0.1,20.8,100,0,0,15,�k�k��,1,42,,
2021/8/7,2:00:00,16,�É�,0.2,20.7,100,0,0,14,�k��,0.9,49,,
2021/8/7,3:00:00,14,�k��,0.4,20.7,100,0,0,14,�k��,1.6,42,,
2021/8/7,4:00:00,16,�É�,0,20.8,100,0,0,16,�k,0.9,7,,
2021/8/7,5:00:00,4,��,0.3,21,100,0,0.01,1,�k�k��,0.9,28,,
2021/8/7,6:00:00,1,�k�k��,0.8,21.5,100,0,0.07,1,�k�k��,1.3,56,,
2021/8/7,7:00:00,2,�k��,0.9,22.2,99.5,0,0.14,1,�k�k��,1.8,50,,
2021/8/7,8:00:00,2,�k��,0.7,22.5,99.2,0,0.14,2,�k��,2.1,0,,
2021/8/7,9:00:00,4,��,2.1,22.9,95.3,0,0.27,4,��,2.9,55,,
2021/8/7,10:00:00,5,���쓌,2,23.5,92,0,0.35,3,���k��,3.3,33,,
2021/8/7,11:00:00,5,���쓌,3,24.2,87.8,0,0.66,6,�쓌,4.6,47,,
2021/8/7,12:00:00,5,���쓌,2.4,24.9,87.3,0,0.53,6,�쓌,3.9,10,,
2021/8/7,13:00:00,4,��,2.7,23.4,93.9,0,0.37,4,��,4.1,35,,
2021/8/7,14:00:00,3,���k��,3.7,23.6,95.2,0,0.28,3,���k��,5,52,,
2021/8/7,15:00:00,4,��,2.5,25.4,91.7,0,0.29,3,���k��,4.9,3,,
2021/8/7,16:00:00,6,�쓌,2.5,25.2,91.6,0,0.28,7,��쓌,5.8,18,,
2021/8/7,17:00:00,7,��쓌,2.5,24.4,93.9,0,0.19,7,��쓌,6.4,9,,
2021/8/7,18:00:00,7,��쓌,2.5,23.8,95.8,0,0.05,7,��쓌,5.8,56,,
2021/8/7,19:00:00,8,��,1.2,23.2,97.5,0,0.01,8,��,6.1,14,,
2021/8/7,20:00:00,16,�É�,0,23.2,97.7,0,0,7,��쓌,3.8,5,,
2021/8/7,21:00:00,16,�É�,0.1,23.1,98.9,0,0,10,�쐼,2.1,14,,
2021/8/7,22:00:00,4,��,2.7,22.8,99.9,0,0,4,��,3.8,57,,
2021/8/7,23:00:00,2,�k��,2.5,22.3,100,0,0,4,��,4.1,8,,
2021/8/7,0:00:00,15,�k�k��,0.5,22.3,100,0,0,1,�k�k��,3.5,3,,
2021/8/8,1:00:00,16,�É�,0,22.2,100,0,0,13,���k��,1.9,17,,
2021/8/8,2:00:00,7,��쓌,0.7,22.3,100,0,0,7,��쓌,2.6,57,,
2021/8/8,3:00:00,7,��쓌,0.6,22.2,100,0,0,8,��,1.9,7,,
2021/8/8,4:00:00,7,��쓌,0.8,22.3,100,0,0,7,��쓌,1.7,58,,
2021/8/8,5:00:00,6,�쓌,0.3,22.3,100,0,0.01,7,��쓌,1.8,2,,
2021/8/8,6:00:00,4,��,1.2,22.6,100,0,0.05,4,��,1.8,50,,
2021/8/8,7:00:00,3,���k��,2.1,22.6,100,0,0.08,4,��,4.5,28,,
2021/8/8,8:00:00,3,���k��,2.9,22.6,100,0,0.13,4,��,4.7,32,,
2021/8/8,9:00:00,3,���k��,3,22.8,100,0,0.24,4,��,4.7,59,,
2021/8/8,10:00:00,4,��,2.8,23.3,100,0,0.37,4,��,4.7,0,,
2021/8/8,11:00:00,3,���k��,1.8,23.6,99.8,0,0.38,4,��,4.8,2,,
2021/8/8,12:00:00,4,��,2.8,24.2,95.8,0,0.45,4,��,4.2,53,,
2021/8/8,13:00:00,4,��,2.3,24.1,96.1,0,0.3,4,��,4.7,31,,
2021/8/8,14:00:00,4,��,6.5,20.8,98,0,0.16,4,��,10.7,26,,
2021/8/8,15:00:00,3,���k��,6.4,19.2,99,4.5,0.08,4,��,12.1,56,,
2021/8/8,16:00:00,3,���k��,5.7,18.3,98.1,0,0.04,2,�k��,10.8,25,,
2021/8/8,17:00:00,3,���k��,7.1,17.7,97.1,0,0.04,3,���k��,11.5,58,,
2021/8/8,18:00:00,3,���k��,7,16.8,96.9,0,0.02,3,���k��,12.2,4,,
2021/8/8,19:00:00,3,���k��,5,16.3,96.8,0,0,3,���k��,11.7,2,,
2021/8/8,20:00:00,2,�k��,4.3,16,96.1,0,0,1,�k�k��,8.3,5,,
2021/8/8,21:00:00,2,�k��,3.1,15.9,96.6,0,0,2,�k��,7.4,40,,
2021/8/8,22:00:00,1,�k�k��,1.6,15.8,99.6,0.5,0,2,�k��,6.7,7,,
2021/8/8,23:00:00,15,�k�k��,0.6,15.8,100,1,0,2,�k��,2,2,,
2021/8/8,0:00:00,14,�k��,2,15.8,100,0.5,0,14,�k��,3.2,51,,
2021/8/9,1:00:00,14,�k��,1,15.9,100,1,0,2,�k��,2.6,21,,
2021/8/9,2:00:00,1,�k�k��,1.3,15.7,100,1.5,0,1,�k�k��,3.9,44,,
2021/8/9,3:00:00,16,�k,0.9,15.7,99.9,0.5,0,16,�k,3.7,59,,
2021/8/9,4:00:00,15,�k�k��,1.3,15.8,100,1,0,16,�k,3.5,58,,
2021/8/9,5:00:00,1,�k�k��,2.1,15.6,99.8,1,0,1,�k�k��,4.4,45,,
2021/8/9,6:00:00,16,�k,1.9,15.4,100,2,0.01,16,�k,4.9,44,,
2021/8/9,7:00:00,1,�k�k��,2.5,15.5,100,1,0.03,16,�k,5.4,50,,
2021/8/9,8:00:00,15,�k�k��,1.3,15.7,100,2,0.05,16,�k,3.6,35,,
2021/8/9,9:00:00,16,�k,1.8,16,100,0.5,0.06,16,�k,3.2,6,,
2021/8/9,10:00:00,16,�k,1.4,16.4,98.8,1,0.07,16,�k,3.8,1,,
2021/8/9,11:00:00,16,�k,2.2,16.2,99.4,1,0.08,15,�k�k��,4.6,55,,
2021/8/9,12:00:00,1,�k�k��,2.5,16.3,99.7,0.5,0.09,1,�k�k��,4.6,53,,
2021/8/9,13:00:00,1,�k�k��,2.1,16.2,99.9,1.5,0.09,1,�k�k��,4.5,15,,
2021/8/9,14:00:00,1,�k�k��,1.9,16.2,99.6,1.5,0.08,16,�k,4.4,34,,
2021/8/9,15:00:00,1,�k�k��,1.8,16.1,100,1,0.06,2,�k��,4.1,43,,
2021/8/9,16:00:00,2,�k��,2.1,15.7,99.1,1.5,0.07,1,�k�k��,4.3,37,,
2021/8/9,17:00:00,16,�k,1.6,15.4,99,2,0.03,1,�k�k��,4.1,40,,
2021/8/9,18:00:00,1,�k�k��,2.3,15.1,99.4,1,0.01,16,�k,4.6,43,,
2021/8/9,19:00:00,16,�k,2.1,15,99.2,2.5,0,15,�k�k��,5.2,1,,
2021/8/9,20:00:00,16,�k,1.7,15,98.6,2,0,16,�k,5,5,,
2021/8/9,21:00:00,1,�k�k��,3,14.8,99,2.5,0,2,�k��,5.7,32,,
2021/8/9,22:00:00,1,�k�k��,2.7,14.7,99.1,4,0,2,�k��,5.8,49,,
2021/8/9,23:00:00,1,�k�k��,4,14.7,99,2.5,0,1,�k�k��,6.7,36,,
2021/8/9,0:00:00,1,�k�k��,4.3,14.9,98.6,1,0,3,���k��,8.3,57,,
2021/8/10,1:00:00,2,�k��,4.9,14.9,98.5,2,0,2,�k��,8.9,37,,
2021/8/10,2:00:00,1,�k�k��,3.5,14.7,98.9,2.5,0,2,�k��,8.3,12,,
2021/8/10,3:00:00,2,�k��,4.4,14.4,99.4,5.5,0,2,�k��,6.9,9,,
2021/8/10,4:00:00,16,�k,3.1,14.4,98.9,6,0,1,�k�k��,8.3,4,,
2021/8/10,5:00:00,1,�k�k��,3.4,14.3,98.7,3,0,16,�k,7.6,1,,
2021/8/10,6:00:00,1,�k�k��,3.7,14.3,98.9,4,0.02,16,�k,6.8,21,,
2021/8/10,7:00:00,1,�k�k��,4.3,14.5,98.6,4.5,0.03,15,�k�k��,9.6,50,,
2021/8/10,8:00:00,15,�k�k��,2.4,14.4,99.1,10,0.05,16,�k,8.3,37,,
2021/8/10,9:00:00,14,�k��,2.8,14.2,99.7,15.5,0.04,15,�k�k��,7.8,3,,
2021/8/10,10:00:00,15,�k�k��,2.5,14.2,99.5,9.5,0.05,15,�k�k��,8.8,31,,
2021/8/10,11:00:00,15,�k�k��,2.7,14.7,99.1,5.5,0.11,15,�k�k��,8.4,37,,
2021/8/10,12:00:00,15,�k�k��,3.5,14.8,99,3.5,0.14,14,�k��,10.2,20,,
2021/8/10,13:00:00,15,�k�k��,4,14.4,99.1,4,0.1,16,�k,9.2,15,,
2021/8/10,14:00:00,15,�k�k��,4.4,14.1,99.4,7,0.08,15,�k�k��,9.4,52,,
2021/8/10,15:00:00,14,�k��,5.2,14,99.1,5.5,0.08,14,�k��,9.1,59,,
2021/8/10,16:00:00,14,�k��,4.4,13.6,99.2,2,0.03,14,�k��,10,40,,
2021/8/10,17:00:00,14,�k��,5.4,13.4,98.8,4,0.03,15,�k�k��,12,44,,
2021/8/10,18:00:00,14,�k��,6.3,13.3,98.2,2.5,0.01,14,�k��,12.3,59,,
2021/8/10,19:00:00,14,�k��,5.1,13.2,98.7,1.5,0.01,13,���k��,10.7,2,,
2021/8/10,20:00:00,14,�k��,4.3,13.2,99.2,1,0,14,�k��,9.9,32,,
2021/8/10,21:00:00,14,�k��,4.3,13.1,99.2,1,0,14,�k��,8.4,20,,
2021/8/10,22:00:00,14,�k��,4.4,13,98.7,0.5,0,14,�k��,8.8,30,,
2021/8/10,23:00:00,14,�k��,6,12.6,97.8,0,0,14,�k��,11.7,51,,
2021/8/10,0:00:00,14,�k��,4.4,12.6,95.7,0,0,14,�k��,9.8,36,,
2021/8/11,1:00:00,14,�k��,4.6,12.2,99,0.5,0,14,�k��,10.1,27,,
2021/8/11,2:00:00,14,�k��,3.1,12.1,99.5,1,0,14,�k��,8.9,27,,
2021/8/11,3:00:00,14,�k��,2.5,12.1,99.3,0.5,0,14,�k��,5,45,,
2021/8/11,4:00:00,14,�k��,3,11.9,99.2,0.5,0,14,�k��,5.1,43,,
2021/8/11,5:00:00,15,�k�k��,1.8,11.8,98.7,1,0.01,14,�k��,5.3,6,,
2021/8/11,6:00:00,15,�k�k��,3.4,12.2,92.2,0,0.03,14,�k��,8.6,55,,
2021/8/11,7:00:00,14,�k��,2.7,13.1,92.3,0,0.11,15,�k�k��,9,26,,
2021/8/11,8:00:00,15,�k�k��,1.8,14,89.6,0,0.2,14,�k��,6.9,18,,
2021/8/11,9:00:00,16,�k,4,15.3,80.7,0,0.39,1,�k�k��,11.4,37,,
2021/8/11,10:00:00,16,�k,5.6,17.3,69.4,0,0.65,14,�k��,11,44,,
2021/8/11,11:00:00,16,�k,3.7,18.9,60.9,0,0.89,1,�k�k��,10.2,18,,
2021/8/11,12:00:00,16,�k,6.2,19.3,58.9,0,0.96,1,�k�k��,12,49,,
2021/8/11,13:00:00,16,�k,3.2,21.1,59,0,0.97,16,�k,9.8,4,,
2021/8/11,14:00:00,15,�k�k��,3.7,21.7,53.8,0,0.88,14,�k��,7.4,38,,
2021/8/11,15:00:00,1,�k�k��,2.9,21.2,60.5,0,0.69,1,�k�k��,7.6,40,,
2021/8/11,16:00:00,2,�k��,3.7,19.6,60.9,0,0.53,2,�k��,7.3,4,,
2021/8/11,17:00:00,2,�k��,3.8,18.2,65.6,0,0.33,1,�k�k��,6.5,10,,
2021/8/11,18:00:00,2,�k��,3.8,15.7,71.1,0,0.14,1,�k�k��,6.6,41,,
2021/8/11,19:00:00,14,�k��,1.9,13.2,82.5,0,0.01,1,�k�k��,5.7,4,,
2021/8/11,20:00:00,15,�k�k��,0.6,11,89,0,0,14,�k��,3.6,3,,
2021/8/11,21:00:00,13,���k��,1.4,10.2,96.8,0,0,13,���k��,2.6,40,,
2021/8/11,22:00:00,14,�k��,1.1,9.2,98.2,0,0,13,���k��,2.1,53,,
2021/8/11,23:00:00,14,�k��,1.8,9.8,95.1,0,0,13,���k��,3.4,45,,
2021/8/11,0:00:00,14,�k��,1.5,11.1,92,0,0,14,�k��,3,8,,
2021/8/12,1:00:00,13,���k��,0.8,9.8,95.6,0,0,13,���k��,2.5,16,,
2021/8/12,2:00:00,12,��,1.7,8.4,98.3,0,0,12,��,2.4,49,,
2021/8/12,3:00:00,12,��,1.8,10.1,99.3,0,0,13,���k��,2.6,52,,
2021/8/12,4:00:00,12,��,1.6,10.5,96.6,0,0,12,��,2.9,9,,
2021/8/12,5:00:00,13,���k��,1.4,10.9,97,0,0.01,12,��,2.7,22,,
2021/8/12,6:00:00,12,��,1.1,11.6,94,0,0.05,13,���k��,2.8,32,,
2021/8/12,7:00:00,11,���쐼,0.7,13.2,83.4,0,0.2,12,��,2.2,36,,
2021/8/12,8:00:00,1,�k�k��,0.8,15.2,77.9,0,0.34,3,���k��,2.1,41,,
2021/8/12,9:00:00,5,���쓌,2,15.1,82.3,0,0.33,4,��,3.3,31,,
2021/8/12,10:00:00,5,���쓌,1.3,16.1,78.9,0,0.43,4,��,3.2,0,,
2021/8/12,11:00:00,7,��쓌,1.5,16.4,67,0,0.47,8,��,3.4,56,,
2021/8/12,12:00:00,5,���쓌,2,17,63,0,0.63,6,�쓌,3.5,8,,
2021/8/12,13:00:00,6,�쓌,2.5,17,64.5,0,0.73,6,�쓌,4.9,47,,
2021/8/12,14:00:00,6,�쓌,2.6,17.5,67.7,0,0.77,5,���쓌,5,13,,
2021/8/12,15:00:00,7,��쓌,2.5,18,68.3,0,0.75,6,�쓌,5.5,34,,
2021/8/12,16:00:00,7,��쓌,2.4,16,76.2,0,0.35,8,��,5.8,20,,
2021/8/12,17:00:00,8,��,2.3,15.6,78.4,0,0.29,10,�쐼,4.5,40,,
2021/8/12,18:00:00,10,�쐼,1.9,14.4,83.8,0,0.13,9,��쐼,3.5,10,,
2021/8/12,19:00:00,9,��쐼,1.6,13.8,88.3,0,0.01,9,��쐼,3.7,30,,
2021/8/12,20:00:00,8,��,0.4,13.7,91.7,0,0,9,��쐼,3.6,17,,
2021/8/12,21:00:00,6,�쓌,0.6,13.3,91.6,0,0,8,��,1.9,26,,
2021/8/12,22:00:00,6,�쓌,1.8,13.2,92.2,0,0,6,�쓌,3.4,51,,
2021/8/12,23:00:00,16,�É�,0.2,12.6,93.4,0,0,7,��쓌,7.7,54,,
2021/8/12,0:00:00,8.4,��,99,0,0,,,,,,,,
2021/8/13,1:00:00,12,��,1.3,8.3,100,0,0,12,��,1.9,31,,
2021/8/13,2:00:00,13,���k��,0.9,8.8,100,0,0,12,��,2,4,,
2021/8/13,3:00:00,12,��,1.4,9.8,100,0,0,12,��,2,59,,
2021/8/13,4:00:00,12,��,1.6,10.3,100,0,0,12,��,2.3,53,,
2021/8/13,5:00:00,16,�É�,0,11.2,100,0,0.01,13,���k��,2.2,16,,
2021/8/13,6:00:00,13,���k��,0.7,12.1,98.1,0,0.12,13,���k��,1.3,1,,
2021/8/13,7:00:00,2,�k��,0.6,15.5,87.1,0,0.36,1,�k�k��,1.6,52,,
2021/8/13,8:00:00,16,�É�,0.1,15.8,83.9,0,0.27,4,��,1.8,10,,
2021/8/13,9:00:00,6,�쓌,3,17.7,75.4,0,0.81,5,���쓌,4.7,56,,
2021/8/13,10:00:00,6,�쓌,3.9,17.2,75,0,0.88,6,�쓌,6.4,58,,
2021/8/13,11:00:00,6,�쓌,3.9,17.3,70.2,0,1,8,��,7.1,35,,
2021/8/13,12:00:00,6,�쓌,4,17.1,63.5,0,1.01,5,���쓌,6.8,15,,
2021/8/13,13:00:00,7,��쓌,4,18.1,62.9,0,0.97,7,��쓌,7.9,39,,
2021/8/13,14:00:00,7,��쓌,3.7,17.9,67.4,0,0.88,6,�쓌,6.8,23,,
2021/8/13,15:00:00,8,��,3.5,17.5,70.4,0,0.64,8,��,6.1,47,,
2021/8/13,16:00:00,8,��,3.3,16.6,70.8,0,0.54,8,��,6.2,43,,
2021/8/13,17:00:00,7,��쓌,3.2,15.7,78.9,0,0.34,8,��,6,17,,
2021/8/13,18:00:00,8,��,1.5,14.1,83,0,0.13,8,��,5.1,7,,
2021/8/13,19:00:00,7,��쓌,0.7,11.9,94.1,0,0.01,9,��쐼,2.7,0,,
2021/8/13,20:00:00,11,���쐼,0.3,10.1,98,0,0,7,��쓌,1.3,20,,
2021/8/13,21:00:00,13,���k��,0.3,9.5,99.8,0,0,12,��,1.7,32,,
2021/8/13,22:00:00,12,��,1.5,9.1,100,0,0,12,��,2.4,52,,
2021/8/13,23:00:00,10,�쐼,1.9,9.1,100,0,0,10,�쐼,2.5,46,,
2021/8/13,0:00:00,8,��,1.8,9.1,100,0,0,9,��쐼,2.4,10,,
2021/8/14,1:00:00,12,��,1.7,9.8,100,0,0,7,��쓌,2.4,51,,
2021/8/14,2:00:00,14,�k��,0.5,10.5,96.4,0,0,14,�k��,3.8,19,,
2021/8/14,3:00:00,13,���k��,2,9.8,99.6,0,0,12,��,2.6,59,,
2021/8/14,4:00:00,13,���k��,0.6,10.1,99.8,0,0,13,���k��,2.7,5,,
2021/8/14,5:00:00,14,�k��,1.3,9.5,99.9,0,0.01,13,���k��,2.5,39,,
2021/8/14,6:00:00,13,���k��,0.9,11.9,95.9,0,0.11,14,�k��,1.7,9,,
2021/8/14,7:00:00,1,�k�k��,0.9,14.9,90.9,0,0.25,2,�k��,2.1,59,,
2021/8/14,8:00:00,3,���k��,2.5,15.9,79,0,0.37,4,��,4.3,54,,
2021/8/14,9:00:00,4,��,4.2,16.4,72.9,0,0.37,5,���쓌,6.2,53,,
2021/8/14,10:00:00,4,��,4.4,17.1,68.7,0,0.69,4,��,7.4,27,,
2021/8/14,11:00:00,4,��,4.1,18.2,68.8,0,0.88,4,��,7,55,,
2021/8/14,12:00:00,4,��,5.3,16.6,71.7,0,0.92,4,��,7.7,5,,
2021/8/14,13:00:00,4,��,4.1,16.3,71.7,0,0.51,5,���쓌,7.1,13,,
2021/8/14,14:00:00,3,���k��,4.4,17.2,69.4,0,0.69,4,��,7.2,49,,
2021/8/14,15:00:00,3,���k��,3.6,16.5,72.5,0,0.58,4,��,7.7,24,,
2021/8/14,16:00:00,4,��,3.3,15.8,75.8,0,0.34,4,��,6,28,,
2021/8/14,17:00:00,4,��,2.5,14.9,82.3,0,0.14,4,��,5.6,14,,
2021/8/14,18:00:00,4,��,2.5,14.3,84.1,0,0.03,4,��,5.2,46,,
2021/8/14,19:00:00,4,��,2.2,13.8,84.7,0,0.01,4,��,4.5,16,,
2021/8/14,20:00:00,2,�k��,1.2,13.6,88.2,0,0,3,���k��,3.4,48,,
2021/8/14,21:00:00,14,�k��,0.7,13.4,91.8,0,0,14,�k��,1.5,50,,
2021/8/14,22:00:00,14,�k��,0.7,13.4,92,0,0,13,���k��,2.6,32,,
2021/8/14,23:00:00,16,�k,1.4,13,92.5,0,0,2,�k��,2.6,28,,
2021/8/14,0:00:00,13,���k��,0.9,12.5,93,0,0,12,��,2.1,24,,
2021/8/15,1:00:00,12,��,1.2,10.9,97.4,0,0,13,���k��,2.1,31,,
2021/8/15,2:00:00,13,���k��,1.5,10.6,98.4,0,0,13,���k��,2.5,48,,
2021/8/15,3:00:00,14,�k��,1.3,10.4,99.8,0,0,14,�k��,2,58,,
2021/8/15,4:00:00,14,�k��,1.1,10.1,98.1,0,0,14,�k��,2.3,39,,
2021/8/15,5:00:00,13,���k��,1.2,9.5,98.8,0,0.01,14,�k��,2.6,12,,
2021/8/15,6:00:00,16,�k,0.8,13,90.4,0,0.13,16,�k,2,51,,
2021/8/15,7:00:00,1,�k�k��,2.9,13.9,87.7,0,0.28,2,�k��,4.4,53,,
2021/8/15,8:00:00,3,���k��,3.4,14.8,82.9,0,0.32,3,���k��,5.3,58,,
2021/8/15,9:00:00,3,���k��,4.2,15.7,73.3,0,0.64,3,���k��,7.1,58,,
2021/8/15,10:00:00,4,��,4.3,16.4,75.4,0,0.84,4,��,7.6,52,,
2021/8/15,11:00:00,3,���k��,3.7,17.5,64.6,0,0.71,3,���k��,6.5,0,,
2021/8/15,12:00:00,5,���쓌,3.8,17.7,65.8,0,1.03,4,��,6.1,39,,
2021/8/15,13:00:00,4,��,2.8,18,65.9,0,0.93,5,���쓌,6.3,11,,
2021/8/15,14:00:00,4,��,3.5,17.5,70.2,0,0.68,4,��,5.3,50,,
2021/8/15,15:00:00,4,��,3.4,17.1,73.6,0,0.69,5,���쓌,5.7,50,,
2021/8/15,16:00:00,4,��,3,17.3,78.6,0,0.48,5,���쓌,5.5,14,,
2021/8/15,17:00:00,4,��,2.3,16.1,85.2,0,0.16,4,��,4.7,3,,
2021/8/15,18:00:00,5,���쓌,1.8,15.4,88.5,0,0.05,5,���쓌,3.8,29,,
2021/8/15,19:00:00,5,���쓌,1.1,15,91.6,0,0.01,4,��,3,12,,
2021/8/15,20:00:00,5,���쓌,1.2,14.7,92.5,0,0,5,���쓌,2.1,52,,
2021/8/15,21:00:00,7,��쓌,0.9,14.7,92.4,0,0,6,�쓌,2.5,18,,
2021/8/15,22:00:00,16,�É�,0.1,14.1,97.2,0,0,12,��,1,11,,
2021/8/15,23:00:00,12,��,0.6,14,96.5,0,0,7,��쓌,1.6,17,,
2021/8/15,0:00:00,16,�É�,0,14,97.8,0,0,12,��,17.3,29,,
2021/8/16,1:00:00,16,�É�,0,14,98.3,0,0,12,��,0.4,19,,
2021/8/16,2:00:00,16,�É�,0,14,97.3,0,0,13,���k��,0.4,20,,
2021/8/16,3:00:00,16,�É�,0,14,96.9,0,0,12,��,0.9,6,,
2021/8/16,4:00:00,16,�É�,0.1,14.2,90.8,0,0,5,���쓌,2.2,25,,
2021/8/16,5:00:00,5,���쓌,0.5,14.2,89.3,0,0,8,��,2.1,29,,
2021/8/16,6:00:00,16,�É�,0,14.4,93.5,0,0.03,5,���쓌,1.9,0,,
2021/8/16,7:00:00,7,��쓌,0.8,15.2,85.5,0,0.1,10,�쐼,3.9,46,,
2021/8/16,8:00:00,7,��쓌,1.3,15.5,87,0,0.14,6,�쓌,2.6,45,,
2021/8/16,9:00:00,7,��쓌,2,15.3,87.3,0,0.21,5,���쓌,3.3,30,,
2021/8/16,10:00:00,7,��쓌,2.4,16.1,86,0,0.25,8,��,3.9,58,,
2021/8/16,11:00:00,7,��쓌,2.5,15.9,84.8,0,0.37,7,��쓌,4.7,47,,
2021/8/16,12:00:00,6,�쓌,2.5,16.3,82.9,0,0.34,6,�쓌,4.5,0,,
2021/8/16,13:00:00,8,��,2.5,17.1,76.2,0,0.51,8,��,5.1,51,,
2021/8/16,14:00:00,7,��쓌,3,16.6,80.5,0,0.53,6,�쓌,5.3,49,,
2021/8/16,15:00:00,7,��쓌,3.2,16.3,80.2,0,0.46,7,��쓌,5.9,59,,
2021/8/16,16:00:00,7,��쓌,1.9,16,84.2,0,0.29,7,��쓌,5.4,0,,
2021/8/16,17:00:00,7,��쓌,2.1,15.5,84.9,0,0.17,6,�쓌,4.3,36,,
2021/8/16,18:00:00,8,��,1.6,14.8,88.2,0,0.05,8,��,4.6,1,,
2021/8/16,19:00:00,8,��,0.6,14.6,90.7,0,0.01,7,��쓌,2.5,6,,
2021/8/16,20:00:00,8,��,0.4,14.5,92.1,0,0,7,��쓌,2,15,,
2021/8/16,21:00:00,16,�É�,0.1,14.5,92.8,0,0,7,��쓌,2.2,18,,
2021/8/16,22:00:00,16,�É�,0.1,14.6,92.8,0,0,7,��쓌,1.6,10,,
2021/8/16,23:00:00,16,�É�,0,13.8,97.6,0,0,8,��,1,8,,
2021/8/16,0:00:00,12,��,0.5,13.2,98.9,0,0,12,��,0.9,53,,
2021/8/17,1:00:00,16,�É�,0.1,13.9,99.4,0,0,13,���k��,1,30,,
2021/8/17,2:00:00,16,�É�,0,13.6,99,0,0,11,���쐼,0.5,33,,
2021/8/17,3:00:00,13,���k��,0.8,13.8,99,0,0,13,���k��,1.1,59,,
2021/8/17,4:00:00,13,���k��,0.5,12.7,99.5,0,0,10,�쐼,1.7,17,,
2021/8/17,5:00:00,16,�É�,0,12.9,100,0,0.01,13,���k��,0.8,43,,